This is the latest recevied weather packets stored in our database for station/object KJ6LNH-1. If no packets are shown the sender has not sent any weather packets the latest 10 day(s).
| Time | Temp. | Humidity | Pressure | Rain* | Wind** | Luminosity | Snow |
|---|---|---|---|---|---|---|---|
| 1778173808 | 17.78° C | 67% | 1017.6 hPa | 0 mm | - | - | - |
| 1778173207 | 17.22° C | 68% | 1017.6 hPa | 0 mm | - | - | - |
| 1778172925 | 17.22° C | 69% | 1017.6 hPa | 0 mm | - | - | - |
| 1778172008 | 16.11° C | 74% | 1017.6 hPa | 0 mm | - | - | - |
| 1778170808 | 15.56° C | 77% | 1017.6 hPa | 0 mm | - | - | - |
| 1778170208 | 15° C | 79% | 1017.7 hPa | 0 mm | - | - | - |
| 1778169307 | 14.44° C | 81% | 1017.6 hPa | 0 mm | - | - | - |
| 1778169007 | 14.44° C | 82% | 1017.6 hPa | 0 mm | - | - | - |
| 1778168708 | 14.44° C | 82% | 1017.6 hPa | 0 mm | - | - | - |
| 1778168118 | 13.89° C | 85% | 1017.6 hPa | 0 mm | - | - | - |
| 1778167808 | 13.33° C | 86% | 1017.7 hPa | 0 mm | - | - | - |
| 1778167507 | 13.33° C | 87% | 1017.7 hPa | 0 mm | - | - | - |
| 1778167208 | 13.33° C | 88% | 1017.7 hPa | 0 mm | - | - | - |
| 1778166908 | 12.78° C | 88% | 1017.8 hPa | 0 mm | - | - | - |
| 1778166607 | 13.33° C | 88% | 1017.8 hPa | 0 mm | - | - | - |
| 1778165707 | 12.78° C | 90% | 1017.7 hPa | 0 mm | - | - | - |
| 1778165108 | 12.22° C | 91% | 1017.7 hPa | 0 mm | - | - | - |
| 1778164807 | 12.22° C | 92% | 1017.6 hPa | 0 mm | - | - | - |
| 1778164208 | 12.22° C | 94% | 1017.6 hPa | 0 mm | - | - | - |
| 1778163907 | 11.67° C | 94% | 1017.6 hPa | 0 mm | - | - | - |
| 1778163607 | 11.67° C | 94% | 1017.5 hPa | 0 mm | - | - | - |
| 1778163308 | 11.67° C | 94% | 1017.5 hPa | 0 mm | - | - | - |
| 1778162407 | 11.67° C | 95% | 1017.3 hPa | 0 mm | - | - | - |
| 1778161808 | 11.67° C | 96% | 1017.3 hPa | 0 mm | - | - | - |
| 1778161508 | 11.11° C | 97% | 1017.3 hPa | 0 mm | - | - | - |
* Rain latest hour (hover to see other rain measurements)
** Current wind speed in m/s (hover to see current wind gust speed)